[[{"header":{"parameterUnit":"m.s-1","parameterCategory":1,"la1":30.2991,"la2":30.254,"lo1":-89.0895,"lo2":-89.0444,"dy":0.0017,"dx":0.0017,"nx":28,"ny":28,"refTime":"2025-08-12T21:00:00:Z","depth":0,"parameterNumber":2,"parameterNumberName":"U-component_of_WINDS"},"data":[0,0,0,0,0,0,0,0,0,0,0,0,0,0,0,0,0,0,0,0,0,0,0,0,0,0,0,0,0,0,0,0,0,0,0,0,0,0,0,0,0,0,0,0,0,0,0,0,0,0,0,0,0,0,0,0,0,0,3.0907,3.0907,0,3.0934,3.0934,3.0935,3.0917,3.0916,3.0916,3.0915,3.0943,3.0944,3.0946,0,0,0,0,0,0,0,0,0,0,0,0,0,3.0839,3.084,3.0907,3.0907,3.0907,3.0934,3.0934,3.0935,3.0917,3.0916,3.0915,3.0914,3.0942,3.0944,3.0946,0,0,0,0,0,0,0,0,0,0,0,0,0,3.0868,3.0841,3.0906,3.0902,3.0902,3.0934,3.0934,3.0935,3.0918,3.0916,3.0915,3.0914,3.0942,3.0944,3.0946,3.0984,0,0,3.0953,3.0954,0,0,0,0,0,0,0,0,3.0866,3.087,3.0902,3.0902,3.0902,3.0921,3.0921,3.0951,3.0918,3.0911,3.0915,3.0913,3.0936,3.0939,3.0947,3.0986,3.0987,3.0953,3.0955,3.0955,3.0956,0,0,0,0,0,0,0,3.0864,3.0869,3.0917,3.0903,3.0903,3.0898,3.0901,3.0926,3.093,3.0912,3.0911,3.0914,3.0936,3.0945,3.0947,3.0987,3.0953,3.0955,3.0956,3.0957,3.106,3.1061,0,0,0,0,0,0,3.0862,3.0867,3.0916,3.0918,3.0881,3.0901,3.0904,3.0916,3.093,3.0931,3.0915,3.0913,3.0941,3.0945,3.0948,3.0995,3.0955,3.0958,3.0959,3.1058,3.106,3.1061,0,0,0,0,0,0,3.0861,3.0867,3.0915,3.0892,3.0898,3.0903,3.0917,3.0917,3.0926,3.0933,3.0933,3.0923,3.0941,3.0945,3.0976,3.0995,3.0959,3.0961,3.1057,3.1059,3.1061,3.1087,0,0,0,0,0,0,3.0859,3.0867,3.0881,3.0893,3.09,3.0942,3.0918,3.0919,3.093,3.0928,3.094,3.0941,3.094,3.0972,3.0978,3.0998,3.0962,3.1055,3.1058,3.106,3.1085,3.109,3.1094,0,0,0,0,0,3.0857,3.0887,3.0882,3.0888,3.0918,3.0944,3.0947,3.0945,3.0931,3.0946,3.0951,3.0941,3.0992,3.0976,3.0982,3.1003,3.1054,3.1057,3.106,3.1082,3.1089,3.1094,0,0,0,0,0,0,3.0877,3.0889,3.0883,3.0918,3.093,3.0941,3.0959,3.0952,3.0968,3.0965,3.0962,3.0965,3.0997,3.1003,3.0984,3.1041,3.1021,3.1025,3.1036,3.1042,3.1047,3.1045,3.0964,0,0,0,0,0,3.0886,3.0906,3.0915,3.0945,3.0951,3.0954,3.0965,3.0963,3.0975,3.098,3.0986,3.0999,3.1018,3.103,3.1048,3.1085,3.1088,3.1103,3.1108,3.1112,3.1116,3.1136,3.1143,3.1072,3.1072,3.1071,0,0,3.0904,3.0913,3.0925,3.0949,3.0958,3.0979,3.0959,3.0981,3.0997,3.0983,3.1013,3.1018,3.1031,3.1066,3.1081,3.1072,3.1136,3.1115,3.1119,3.112,3.114,3.1147,3.1153,3.1074,3.1073,3.1073,0,0,3.0948,3.0956,3.0983,3.0992,3.1006,3.1008,3.1014,3.1026,3.1029,3.1059,3.1049,3.1068,3.11,3.111,3.112,3.1168,3.116,3.1174,3.1199,3.122,3.1225,3.123,3.1248,3.1254,3.1178,3.1178,3.1178,0,3.0968,3.0999,3.0997,3.1021,3.1032,3.1021,3.1048,3.1057,3.1076,3.1084,3.1072,3.1114,3.1122,3.1159,3.117,3.1178,3.1186,3.1172,3.1225,3.123,3.1234,3.1251,3.1258,3.1179,3.1179,3.1179,3.1179,0,3.1024,3.1046,3.1066,3.1085,3.1098,3.1123,3.1125,3.1138,3.1135,3.1138,3.1168,3.1178,3.1198,3.1206,3.1203,3.1243,3.1236,3.1225,3.1205,3.1243,3.1259,3.1265,3.1182,3.1181,3.1181,3.118,0,0,3.1081,3.1099,3.1107,3.1115,3.113,3.1147,3.1172,3.1191,3.1203,3.1217,3.1238,3.1266,3.1256,3.1267,3.1264,3.1282,3.132,3.1269,3.1269,3.1278,3.1365,3.1374,3.1382,3.1315,3.1316,3.1317,3.1364,0,3.1126,3.117,3.1169,3.1209,3.123,3.122,3.1242,3.1253,3.1257,3.1275,3.1278,3.1299,3.1283,3.129,3.1307,3.1312,3.1338,3.1309,3.1335,3.1336,3.1332,3.139,3.1399,3.1443,3.1371,3.1372,3.1372,0,3.1184,3.1201,3.1243,3.1256,3.1264,3.1284,3.1302,3.1319,3.1332,3.1334,3.1346,3.1341,3.1366,3.1346,3.1381,3.1361,3.1371,3.1375,3.1377,3.138,3.1356,3.1394,3.1457,3.1464,3.1382,3.1381,3.138,0,3.1222,3.1255,3.1285,3.1293,3.1308,3.1322,3.1329,3.1341,3.1353,3.1368,3.1376,3.1395,3.1405,3.1419,3.142,3.1404,3.1455,3.1434,3.1457,3.1457,3.1469,3.1468,3.1535,3.1475,3.1475,3.1475,3.1475,0,3.1273,3.13,3.1302,3.1321,3.1351,3.1349,3.1378,3.1384,3.1395,3.1414,3.1406,3.1425,3.1424,3.1442,3.1443,3.1472,3.1476,3.1478,3.1478,3.1479,3.1479,3.1486,3.1483,3.1477,3.1476,3.1476,3.1476,0,3.1321,3.1323,3.1356,3.1367,3.1371,3.1393,3.1403,3.142,3.1423,3.1448,3.1454,3.1459,3.148,3.1482,3.1507,3.1507,3.1543,3.1539,3.1538,3.1538,3.1561,3.1559,3.1635,3.1645,3.1578,3.1579,3.1579,0,3.1353,3.1373,3.1388,3.14,3.1408,3.1429,3.1441,3.144,3.1453,3.147,3.1486,3.1507,3.1523,3.1558,3.1564,3.1583,3.158,3.1605,3.1583,3.1584,3.1581,3.158,3.1582,3.161,3.1611,3.1611,3.1612,0,3.141,3.1411,3.1429,3.1448,3.1463,3.1478,3.1492,3.1503,3.1503,3.1519,3.1541,3.1554,3.1579,3.16,3.1619,3.1626,3.1619,3.1619,3.1625,3.1626,3.1625,3.1627,3.1551,3.1617,3.1616,3.1616,3.1616,3.1616,3.1451,3.1469,3.1483,3.1503,3.1514,3.1527,3.1544,3.155,3.1568,3.1589,3.1588,3.1612,3.1625,3.1649,3.1658,3.1677,3.1669,3.1678,3.168,3.1683,3.1685,3.1622,3.1681,3.168,3.168,3.168,3.168,0,3.1509,3.1517,3.1536,3.1556,3.1572,3.1564,3.1579,3.1594,3.1616,3.1628,3.1645,3.167,3.1691,3.1698,3.1718,3.1732,3.1729,3.1737,3.1736,3.1738,3.1692,3.1684,3.1739,3.1739,3.1739,3.1739,3.1739,3.1739,3.154,3.1571,3.1573,3.1608,3.1616,3.164,3.1649,3.1662,3.1672,3.1701,3.1718,3.1723,3.1733,3.1754,3.1772,3.1774,3.1782,3.1791,3.1791,3.1747,3.1742,3.1736,3.1729,3.1793,3.1793,3.1836,3.1837,3.1837]},{"header":{"parameterUnit":"m.s-1","parameterCategory":1,"la1":30.2991,"la2":30.254,"lo1":-89.0895,"lo2":-89.0444,"dy":0.0017,"dx":0.0017,"nx":28,"ny":28,"refTime":"2025-08-12T21:00:00:Z","depth":0,"parameterNumber":3,"parameterNumberName":"V-component_of_WINDS"},"data":[0,0,0,0,0,0,0,0,0,0,0,0,0,0,0,0,0,0,0,0,0,0,0,0,0,0,0,0,0,0,0,0,0,0,0,0,0,0,0,0,0,0,0,0,0,0,0,0,0,0,0,0,0,0,0,0,0,0,0.9319,0.9319,0,0.93,0.93,0.9299,0.9264,0.9263,0.9262,0.9262,0.9243,0.9243,0.9243,0,0,0,0,0,0,0,0,0,0,0,0,0,0.9326,0.9326,0.9319,0.9319,0.9319,0.93,0.93,0.9299,0.9264,0.9263,0.9262,0.9262,0.9243,0.9243,0.9243,0,0,0,0,0,0,0,0,0,0,0,0,0,0.9316,0.9326,0.9319,0.9299,0.9297,0.93,0.93,0.9299,0.9264,0.9263,0.9262,0.9261,0.9243,0.9243,0.9243,0.9265,0,0,0.9244,0.9244,0,0,0,0,0,0,0,0,0.9317,0.9316,0.9302,0.93,0.9298,0.9283,0.9295,0.9288,0.9264,0.9277,0.9262,0.9261,0.9257,0.9256,0.9255,0.9264,0.9263,0.9244,0.9244,0.9244,0.9244,0,0,0,0,0,0,0,0.9318,0.9317,0.9312,0.9302,0.9299,0.9291,0.9288,0.9293,0.9273,0.9275,0.9273,0.9271,0.9256,0.9255,0.9254,0.9263,0.9244,0.9244,0.9244,0.9244,0.9289,0.929,0,0,0,0,0,0,0.9321,0.9318,0.9312,0.9311,0.9305,0.9291,0.9289,0.9289,0.9273,0.9269,0.9272,0.9269,0.9255,0.9254,0.9253,0.9277,0.9244,0.9244,0.9244,0.9287,0.9289,0.929,0,0,0,0,0,0,0.9321,0.9321,0.9313,0.9313,0.9312,0.9292,0.9293,0.9289,0.9288,0.927,0.9266,0.9274,0.9254,0.9253,0.9262,0.9276,0.9244,0.9244,0.9286,0.9288,0.9289,0.9326,0,0,0,0,0,0,0.9322,0.9321,0.9329,0.9314,0.9312,0.9322,0.9294,0.9289,0.9288,0.9285,0.9271,0.9268,0.9253,0.9262,0.9262,0.9276,0.9245,0.9285,0.9287,0.9289,0.9323,0.9329,0.9333,0,0,0,0,0,0.9322,0.9341,0.933,0.933,0.9322,0.9323,0.9322,0.9304,0.929,0.9297,0.9286,0.9269,0.9275,0.9263,0.9263,0.9277,0.9284,0.9286,0.9289,0.9321,0.9328,0.9333,0,0,0,0,0,0,0.9359,0.9338,0.9326,0.934,0.9334,0.9317,0.9327,0.9311,0.9309,0.9306,0.9284,0.9281,0.9293,0.9286,0.9274,0.9297,0.9276,0.9279,0.9301,0.9307,0.9312,0.9313,0.9245,0,0,0,0,0,0.9369,0.9371,0.9353,0.9368,0.9365,0.9346,0.9346,0.9333,0.9325,0.9322,0.9311,0.9305,0.9305,0.9306,0.9305,0.9322,0.9318,0.9332,0.9336,0.934,0.9343,0.9351,0.9356,0.9298,0.9298,0.9298,0,0,0.9389,0.9378,0.9381,0.9375,0.9368,0.9371,0.9344,0.9349,0.9351,0.9323,0.9331,0.9323,0.9314,0.9327,0.9332,0.9321,0.9358,0.9343,0.9347,0.9347,0.9354,0.9359,0.9364,0.9299,0.9299,0.9299,0,0,0.9427,0.9419,0.943,0.9424,0.9414,0.9401,0.9404,0.9389,0.9383,0.939,0.9369,0.9371,0.9372,0.9366,0.9363,0.9399,0.9383,0.9399,0.9425,0.9433,0.9437,0.9441,0.9454,0.9458,0.9402,0.9402,0.9402,0,0.9454,0.9458,0.9438,0.9444,0.9441,0.9416,0.9426,0.9421,0.9411,0.941,0.9398,0.9399,0.9391,0.9402,0.941,0.9409,0.9411,0.9401,0.9438,0.9442,0.9445,0.9457,0.9462,0.9404,0.9404,0.9404,0.9403,0,0.9491,0.9494,0.9504,0.9494,0.9493,0.9502,0.9483,0.9484,0.9471,0.9459,0.9467,0.9457,0.9453,0.9455,0.9442,0.9464,0.9457,0.9442,0.9421,0.9453,0.9464,0.9468,0.9407,0.9406,0.9406,0.9405,0,0,0.9552,0.9531,0.9535,0.953,0.9517,0.9519,0.9526,0.9522,0.9523,0.9518,0.9523,0.9524,0.9509,0.9506,0.9493,0.95,0.9528,0.9483,0.9483,0.9492,0.9551,0.9563,0.9568,0.9517,0.9518,0.9519,0.9552,0,0.9587,0.9598,0.958,0.9595,0.9597,0.9572,0.9578,0.9571,0.956,0.9561,0.9549,0.955,0.9531,0.9529,0.9535,0.9523,0.954,0.9521,0.9522,0.9522,0.9525,0.9573,0.9586,0.9618,0.9556,0.9556,0.9557,0,0.963,0.9626,0.9641,0.9626,0.9626,0.9632,0.9627,0.9628,0.9618,0.961,0.9607,0.959,0.9596,0.9575,0.9583,0.957,0.9569,0.9564,0.9564,0.9564,0.9541,0.9574,0.9627,0.9632,0.9563,0.9563,0.9562,0,0.9673,0.9671,0.9679,0.9676,0.9659,0.9664,0.9657,0.9647,0.9645,0.9641,0.964,0.9636,0.9634,0.9631,0.9614,0.9601,0.9624,0.9602,0.9617,0.9617,0.9623,0.9623,0.9677,0.9623,0.9623,0.9622,0.9622,0,0.9714,0.9724,0.9698,0.9704,0.9714,0.9693,0.9704,0.9695,0.9686,0.9689,0.9667,0.967,0.9648,0.9648,0.9635,0.9643,0.9642,0.9636,0.9632,0.9638,0.9638,0.9637,0.9634,0.9624,0.9623,0.9623,0.9623,0,0.9764,0.9747,0.9754,0.9737,0.9733,0.9742,0.9727,0.9732,0.972,0.9724,0.9723,0.9705,0.9704,0.9687,0.9683,0.9674,0.9687,0.968,0.969,0.9688,0.9704,0.9702,0.9758,0.9764,0.9707,0.9708,0.9708,0,0.9791,0.9798,0.9782,0.9782,0.9776,0.9777,0.9775,0.9755,0.9754,0.9744,0.9749,0.9747,0.9744,0.9745,0.9731,0.9728,0.972,0.9739,0.9719,0.9724,0.972,0.9719,0.972,0.9744,0.9745,0.9745,0.9746,0,0.9841,0.9832,0.9831,0.9826,0.9825,0.982,0.9814,0.9816,0.9793,0.9794,0.9793,0.9791,0.9786,0.9784,0.9778,0.9771,0.9755,0.9752,0.9755,0.9761,0.9767,0.9764,0.9702,0.9751,0.975,0.975,0.975,0.975,0.988,0.9885,0.9874,0.9873,0.9866,0.9861,0.9864,0.9852,0.9851,0.9846,0.9834,0.9835,0.9825,0.9816,0.981,0.981,0.98,0.9805,0.9806,0.9808,0.9811,0.9767,0.9809,0.9809,0.9809,0.9809,0.9809,0,0.9929,0.992,0.992,0.9912,0.9911,0.9895,0.9888,0.9888,0.9889,0.9881,0.9879,0.9878,0.9876,0.9861,0.9857,0.986,0.9853,0.986,0.986,0.9858,0.982,0.9818,0.9866,0.9866,0.9866,0.9866,0.9866,0.9866,0.9954,0.9961,0.9951,0.9955,0.9947,0.9947,0.9945,0.994,0.9933,0.9933,0.9931,0.9921,0.9911,0.9906,0.9903,0.9899,0.9898,0.9908,0.9902,0.9866,0.9861,0.9856,0.9853,0.9908,0.9909,0.994,0.994,0.994]}]]